When you browse on this site, cookies collect data to enhance your experience and personalize the content and advertising you see.
Visit our Privacy Policy to learn more. By continuing to use the site, you agree to this use of cookies and data.
  • In Portugal
  • List of Countries
  • For 7 days
  • Water Temperature
  • Satellite Maps
  • Weather Map
  • Weather Widgets
  • user-avatar
    Login

    Hourly Weather La Massana

    Today, 22 May, Wednesday

    Time Temperature Precipitation Wind Pressure Humidity
    00:00 +4°C° 0 mm 1 mps 609 mmHg 94%
    01:00 +4°C° 0 mm 1 mps 609 mmHg 94%
    02:00 +3°C° 0 mm 1 mps 609 mmHg 94%
    03:00 +3°C° 0 mm 1 mps 609 mmHg 94%
    04:00 +4°C° 0 mm 1 mps 609 mmHg 91%
    05:00 +4°C° 0 mm 1 mps 610 mmHg 89%
    06:00 +5°C° 0 mm 1 mps 610 mmHg 86%
    07:00 +7°C° 0 mm 1 mps 611 mmHg 75%
    08:00 +10°C° 0 mm 1 mps 612 mmHg 64%
    09:00 +12°C° 0 mm 1 mps 613 mmHg 52%
    10:00 +13°C° 0 mm 1 mps 613 mmHg 50%
    11:00 +13°C° 0 mm 1 mps 614 mmHg 48%
    12:00 +14°C° 0 mm 1 mps 614 mmHg 46%
    13:00 +13°C° 0.2 mm 1 mps 613 mmHg 51%
    14:00 +12°C° 0.2 mm 1 mps 613 mmHg 56%
    15:00 +11°C° 0.2 mm 1 mps 612 mmHg 61%
    16:00 +11°C° 0.2 mm 1 mps 612 mmHg 64%
    17:00 +11°C° 0.2 mm 1 mps 612 mmHg 68%
    18:00 +10°C° 0.2 mm 1 mps 611 mmHg 71%
    19:00 +9°C° 0 mm 1 mps 611 mmHg 77%
    20:00 +7°C° 0 mm 1 mps 611 mmHg 83%
    21:00 +6°C° 0 mm 1 mps 610 mmHg 89%
    22:00 +5°C° 0 mm 1 mps 610 mmHg 88%
    23:00 +5°C° 0 mm 1 mps 610 mmHg 88%

    Tomorrow, 23 May, Thursday

    Time Temperature Precipitation Wind Pressure Humidity
    00:00 +5°C° 0 mm 1 mps 610 mmHg 88%
    01:00 +4°C° 0 mm 1 mps 610 mmHg 87%
    02:00 +4°C° 0 mm 1 mps 609 mmHg 85%
    03:00 +4°C° 0 mm 1 mps 609 mmHg 83%
    04:00 +5°C° 0 mm 1 mps 610 mmHg 79%
    05:00 +6°C° 0 mm 1 mps 610 mmHg 75%
    06:00 +7°C° 0 mm 1 mps 611 mmHg 71%
    07:00 +10°C° 0 mm 1 mps 612 mmHg 62%
    08:00 +12°C° 0 mm 1 mps 613 mmHg 53%
    09:00 +15°C° 0 mm 1 mps 614 mmHg 44%
    10:00 +16°C° 0 mm 1 mps 615 mmHg 41%
    11:00 +18°C° 0 mm 1 mps 615 mmHg 39%
    12:00 +19°C° 0 mm 1 mps 615 mmHg 36%
    13:00 +18°C° 0.1 mm 1 mps 614 mmHg 43%
    14:00 +15°C° 0.1 mm 1 mps 613 mmHg 50%
    15:00 +14°C° 0.1 mm 1 mps 612 mmHg 57%
    16:00 +13°C° 0.5 mm 1 mps 612 mmHg 64%
    17:00 +12°C° 0.5 mm 1 mps 611 mmHg 72%
    18:00 +11°C° 0.5 mm 1 mps 611 mmHg 80%
    19:00 +10°C° 1.2 mm 1 mps 611 mmHg 83%
    20:00 +9°C° 1.2 mm 1 mps 611 mmHg 87%
    21:00 +8°C° 1.2 mm 1 mps 611 mmHg 90%
    22:00 +8°C° 0.5 mm 1 mps 611 mmHg 90%
    23:00 +8°C° 0.5 mm 1 mps 610 mmHg 91%

    Day after tomorrow, 24 May, Friday

    Time Temperature Precipitation Wind Pressure Humidity
    00:00 +8°C° 0.5 mm 1 mps 610 mmHg 91%
    01:00 +7°C° 0.5 mm 1 mps 610 mmHg 91%
    02:00 +7°C° 0.5 mm 1 mps 610 mmHg 92%
    03:00 +6°C° 0.5 mm 0 mps 610 mmHg 92%
    04:00 +6°C° 0.5 mm 0 mps 610 mmHg 91%
    05:00 +7°C° 0.5 mm 0 mps 610 mmHg 90%
    06:00 +8°C° 0.5 mm 1 mps 610 mmHg 89%
    07:00 +9°C° 0.4 mm 1 mps 610 mmHg 85%
    08:00 +10°C° 0.4 mm 1 mps 611 mmHg 81%
    09:00 +10°C° 0.4 mm 1 mps 612 mmHg 77%
    10:00 +10°C° 1.8 mm 1 mps 611 mmHg 81%
    11:00 +9°C° 1.8 mm 1 mps 611 mmHg 85%
    12:00 +8°C° 1.8 mm 1 mps 610 mmHg 90%
    13:00 +8°C° 1.4 mm 1 mps 610 mmHg 91%
    14:00 +7°C° 1.4 mm 2 mps 610 mmHg 92%
    15:00 +7°C° 1.4 mm 2 mps 610 mmHg 93%
    16:00 +6°C° 1.1 mm 2 mps 609 mmHg 93%
    17:00 +6°C° 1.1 mm 2 mps 609 mmHg 94%
    18:00 +6°C° 1.1 mm 2 mps 609 mmHg 95%
    19:00 +5°C° 0.4 mm 2 mps 609 mmHg 94%
    20:00 +5°C° 0.4 mm 2 mps 609 mmHg 94%
    21:00 +5°C° 0.4 mm 2 mps 609 mmHg 94%
    22:00 +5°C° 0.1 mm 2 mps 609 mmHg 94%
    23:00 +5°C° 0.1 mm 2 mps 609 mmHg 94%

    25 May, Saturday

    Time Temperature Precipitation Wind Pressure Humidity
    00:00 +5°C° 0.1 mm 2 mps 609 mmHg 95%
    01:00 +5°C° 0.2 mm 2 mps 609 mmHg 95%
    02:00 +5°C° 0.2 mm 2 mps 609 mmHg 95%
    03:00 +5°C° 0.2 mm 2 mps 609 mmHg 95%
    04:00 +5°C° 0.5 mm 2 mps 609 mmHg 95%
    05:00 +5°C° 0.5 mm 2 mps 609 mmHg 95%
    06:00 +5°C° 0.5 mm 2 mps 610 mmHg 95%
    07:00 +5°C° 1.1 mm 2 mps 610 mmHg 94%
    08:00 +5°C° 1.1 mm 2 mps 610 mmHg 93%
    09:00 +6°C° 1.1 mm 2 mps 610 mmHg 92%
    10:00 +6°C° 0.7 mm 2 mps 610 mmHg 91%
    11:00 +6°C° 0.7 mm 2 mps 610 mmHg 89%
    12:00 +5°C° 0.7 mm 3 mps 610 mmHg 87%
    13:00 +7°C° 0.4 mm 3 mps 610 mmHg 84%
    14:00 +8°C° 0.4 mm 3 mps 611 mmHg 82%
    15:00 +8°C° 0.4 mm 3 mps 611 mmHg 79%
    16:00 +8°C° 0.2 mm 3 mps 611 mmHg 81%
    17:00 +7°C° 0.2 mm 3 mps 611 mmHg 83%
    18:00 +7°C° 0.2 mm 3 mps 610 mmHg 85%
    19:00 +5°C° 0 mm 3 mps 611 mmHg 87%
    20:00 +5°C° 0 mm 2 mps 611 mmHg 90%
    21:00 +4°C° 0 mm 2 mps 611 mmHg 92%
    22:00 +4°C° 0 mm 2 mps 611 mmHg 92%
    23:00 +4°C° 0 mm 2 mps 611 mmHg 93%

    26 May, Sunday

    Time Temperature Precipitation Wind Pressure Humidity
    00:00 +4°C° 0 mm 2 mps 611 mmHg 93%
    01:00 +4°C° 0 mm 2 mps 611 mmHg 93%
    02:00 +4°C° 0 mm 2 mps 610 mmHg 92%
    03:00 +4°C° 0 mm 2 mps 610 mmHg 92%
    04:00 +4°C° 0 mm 2 mps 611 mmHg 90%
    05:00 +5°C° 0 mm 2 mps 611 mmHg 88%
    06:00 +4°C° 0 mm 3 mps 611 mmHg 87%
    07:00 +5°C° 0 mm 3 mps 612 mmHg 82%
    08:00 +7°C° 0 mm 3 mps 612 mmHg 78%
    09:00 +8°C° 0 mm 3 mps 613 mmHg 73%
    10:00 +10°C° 0 mm 3 mps 613 mmHg 68%
    11:00 +11°C° 0 mm 3 mps 613 mmHg 62%
    12:00 +12°C° 0 mm 3 mps 614 mmHg 56%
    13:00 +12°C° 0 mm 3 mps 613 mmHg 57%
    14:00 +12°C° 0 mm 4 mps 613 mmHg 59%
    15:00 +12°C° 0 mm 4 mps 613 mmHg 60%
    16:00 +11°C° 0 mm 3 mps 612 mmHg 64%
    17:00 +10°C° 0 mm 3 mps 612 mmHg 69%
    18:00 +9°C° 0 mm 3 mps 611 mmHg 73%
    19:00 +8°C° 0 mm 2 mps 611 mmHg 79%
    20:00 +6°C° 0 mm 2 mps 611 mmHg 85%
    21:00 +5°C° 0 mm 2 mps 611 mmHg 91%
    22:00 +5°C° 0.1 mm 2 mps 611 mmHg 91%
    23:00 +6°C° 0.1 mm 2 mps 611 mmHg 92%

    27 May, Monday

    Time Temperature Precipitation Wind Pressure Humidity
    00:00 +5°C° 0.1 mm 3 mps 611 mmHg 92%
    01:00 +5°C° 0 mm 3 mps 611 mmHg 92%
    02:00 +5°C° 0 mm 3 mps 611 mmHg 91%
    03:00 +6°C° 0 mm 2 mps 610 mmHg 91%
    04:00 +6°C° 0 mm 2 mps 611 mmHg 89%
    05:00 +6°C° 0 mm 2 mps 611 mmHg 87%
    06:00 +6°C° 0 mm 2 mps 611 mmHg 86%
    07:00 +8°C° 0 mm 2 mps 611 mmHg 79%
    08:00 +9°C° 0 mm 2 mps 612 mmHg 72%
    09:00 +12°C° 0 mm 2 mps 613 mmHg 65%
    10:00 +12°C° 0 mm 3 mps 613 mmHg 59%
    11:00 +14°C° 0 mm 3 mps 613 mmHg 53%
    12:00 +16°C° 0 mm 3 mps 614 mmHg 47%
    13:00 +16°C° 0 mm 3 mps 613 mmHg 50%
    14:00 +16°C° 0 mm 3 mps 613 mmHg 52%
    15:00 +15°C° 0 mm 2 mps 613 mmHg 55%
    16:00 +14°C° 0 mm 2 mps 612 mmHg 62%
    17:00 +13°C° 0 mm 2 mps 612 mmHg 69%
    18:00 +10°C° 0 mm 2 mps 611 mmHg 76%
    19:00 +9°C° 0 mm 2 mps 611 mmHg 81%
    20:00 +7°C° 0 mm 2 mps 610 mmHg 87%
    21:00 +6°C° 0 mm 2 mps 610 mmHg 92%
    22:00 +5°C° 0 mm 2 mps 610 mmHg 91%
    23:00 +4°C° 0 mm 2 mps 609 mmHg 90%
    Show more